Tracking 17925 objects as of 20-February-2017
HD Live streaming from Space Station
objects crossing your sky now

SCOUT X-4 DEB

Track SCOUT X-4 DEB now!
10-day predictions


NORAD ID: 2088
Int'l Code: 1965-093D
Perigee: 653.7 km
Apogee: 786.5 km
Inclination: 59.7 °
Period: 99.0 minutes
Semi major axis: 7091 km
RCS: 0.0298 m2 (small)
Launch date: November 19, 1965
Source: United States (US)
Launch site: WALLOPS ISLAND (WLPIS)

Note: This is SATELLITE DEBRIS
Your satellite tracking list
Your tracking list is empty





NASA's NSSDC Master Catalog

Two Line Element Set (TLE):
1 02088U 65093D   17050.66102345  .00000062  00000-0  51304-4 0  9996
2 02088  59.7194 155.5510 0093639 117.5165 243.5433 14.53901203678893
Source of the keplerian elements: AFSPC